Weather in Jicin

Czech Republic     50°26′17″N   15°21′22″E
В апреле 2022 года жителям России запретили посещать сайт meteo.paraplan.net по решению Генеральной прокуратуры. Аудитория сайта уменьшилась в 10 раз. Владельцы сайта не видят смысла в поддержке погодного сервера в таких условиях. Сайт будет закрыт в октябре.
temp.,
°C
wind,
m/s
gust,
m/s
humid.,
%
clouds,
%
prec.,
mm/h
press.,
hPa
HPBL,
m
3 october, mon
mon323:00+8wnw25964 0.0 1018114
02:00+8wnw3109653 0.0 1019363
05:00+9wnw61181100 0.0 1019976
08:00+9wnw61288100 0.1 10201069
11:00+10wnw61279100 0.1 10211297
14:00+11nw6117398 0.1 10221352
17:00+13wnw6116481 0.1 10211305
20:00+10wnw41083100 0.2 1021531
4 october, tue
tue423:00+11wnw5108293 0.1 1021824
02:00+10wnw4988100 0.4 1021688
05:00+10wnw5985100 0.1 1021830
08:00+10nw3884100 0.2 1021859
11:00+11nw3781100 0.0 1023911
14:00+13wnw3570100 0.1 10221016
17:00+13nw24688 0.0 1022778
20:00+9ene11885 0.0 102310
5 october, wed
wed523:00+8ese22915 0.0 102413
02:00+7e2293100 0.0 102417
05:00+7e2194100 0.0 102315
08:00+8ese2290100 0.0 102351
11:00+13se3468100 0.0 1022367
14:00+17s3551100 0.0 1021689
17:00+16sse2260100 0.0 102026
20:00+12ese227898 0.0 102113
6 october, thu
thu623:00+11ese228685 0.0 102315
02:00+10e1188100 0.0 102410
05:00+10ese118983 0.0 102510
08:00+10ne008946 0.0 102610
11:00+14nw3777100 0.0 1028803
14:00+16nw465812 0.0 10291141
17:00+16nw35555 0.0 1029405
20:00+10n22762 0.0 103113
7 october, fri
fri723:00+9ne21805 0.0 103211
02:00+8ne11820 0.0 103110
05:00+7ene118191 0.0 103010
08:00+7ene11780 0.0 102914
11:00+14se236112 0.0 1028496
14:00+17sse345298 0.0 1025821
17:00+17s11635 0.0 1022127
20:00+12ene228219 0.0 102211